Weather History for K19A - March, 2014

Change the Weather History Date:

Monday, March 10, 2014

  Actual Average (KGVL) Record (KGVL)
Temperature  
Mean Temperature 58 °F 51 °F  
Max Temperature 73 °F 61 °F 83 °F (1974)
Min Temperature 44 °F 41 °F 14 °F (1932)
Degree Days  
Heating Degree Days 6 14  
Month to date heating degree days 152  
Since 1 July heating degree days 2616  
Cooling Degree Days 0 0  
Month to date cooling degree days 0  
Year to date cooling degree days 0  
Growing Degree Days 8 (Base 50)    
Moisture  
Dew Point 29 °F    
Average Humidity 35    
Maximum Humidity 62    
Minimum Humidity 10    
Precipitation  
Precipitation 0.00 in 0.18 in 1.68 in (1978)
Month to date precipitation 1.91  
Year to date precipitation 11.81  
Sea Level Pressure  
Sea Level Pressure 30.00 in    
Wind  
Wind Speed 7 mph (WNW)    
Max Wind Speed 17 mph    
Max Gust Speed 28 mph    
Visibility 10 miles    
Events      
T = Trace of Precipitation, MM = Missing Value Source: NWS Daily Summary

Daily Weather History Graph

Daily Weather History Graph

Search for Another Location

Airport or City:

Trip Planner

Search our weather history database for the weather conditions in past years. The results will help you decide how hot, cold, wet, or windy it might be!

Date:

Astronomy

Mar. 10, 2014 Rise Set
Actual Time 7:51 AM EDT 7:38 PM EDT
Civil Twilight 7:26 AM EDT 8:03 PM EDT
Nautical Twilight 6:57 AM EDT 8:32 PM EDT
Astronomical Twilight 6:28 AM EDT 9:01 PM EDT
Moon 2:31 PM EDT (3/10) 3:51 AM EDT (3/10)
Length of Visible Light 12h 36m
Length of Day
11h 46m
Waxing Gibbous, 70% of the Moon is Illuminated
Mar 10
Waxing Gibbous
Mar 16
Full
Mar 23
Last Quarter
Mar 30
New
Apr 7
First Quarter

Hourly Weather History & Observations

Time (EDT) Temp. Windchill Dew Point Humidity Pressure Visibility Wind Dir Wind Speed Gust Speed Precip Events Conditions
12:15 AM 53.6 °F - 28.4 °F 38% 30.10 in 10.0 mi Calm Calm - N/A   Clear
12:35 AM 53.6 °F - 28.4 °F 38% 30.09 in 10.0 mi WNW 3.5 mph - N/A   Clear
12:55 AM 53.6 °F - 30.2 °F 41% 30.09 in 10.0 mi West 6.9 mph - N/A   Clear
1:15 AM 53.6 °F - 32.0 °F 44% 30.08 in 10.0 mi West 5.8 mph - N/A   Clear
1:35 AM 51.8 °F - 32.0 °F 47% 30.09 in 10.0 mi NW 5.8 mph - N/A   Clear
1:55 AM 51.8 °F - 32.0 °F 47% 30.09 in 10.0 mi NW 5.8 mph - N/A   Clear
2:15 AM 51.8 °F - 32.0 °F 47% 30.09 in 10.0 mi WNW 6.9 mph - N/A   Clear
2:35 AM 51.8 °F - 32.0 °F 47% 30.08 in 10.0 mi WNW 9.2 mph - N/A   Clear
2:55 AM 51.8 °F - 32.0 °F 47% 30.07 in 10.0 mi WNW 8.1 mph - N/A   Clear
3:15 AM 51.8 °F - 32.0 °F 47% 30.06 in 10.0 mi WNW 9.2 mph - N/A   Clear
3:35 AM 51.8 °F - 32.0 °F 47% 30.06 in 10.0 mi NW 6.9 mph - N/A   Clear
3:55 AM 51.8 °F - 32.0 °F 47% 30.06 in 10.0 mi NW 6.9 mph - N/A   Clear
4:15 AM 51.8 °F - 30.2 °F 44% 30.05 in 10.0 mi WNW 5.8 mph - N/A   Clear
4:35 AM 51.8 °F - 32.0 °F 47% 30.04 in 10.0 mi NW 8.1 mph - N/A   Clear
4:55 AM 51.8 °F - 32.0 °F 47% 30.04 in 10.0 mi NW 6.9 mph - N/A   Clear
5:15 AM 51.8 °F - 32.0 °F 47% 30.04 in 10.0 mi WNW 4.6 mph - N/A   Clear
5:35 AM 50.0 °F - 32.0 °F 50% 30.04 in 10.0 mi WNW 3.5 mph - N/A   Clear
5:55 AM 48.2 °F - 32.0 °F 54% 30.03 in 10.0 mi WNW 4.6 mph - N/A   Clear
6:15 AM 46.4 °F 44.3 °F 32.0 °F 57% 30.04 in 10.0 mi West 4.6 mph - N/A   Clear
6:35 AM 46.4 °F 45.2 °F 32.0 °F 57% 30.03 in 10.0 mi WNW 3.5 mph - N/A   Clear
6:55 AM 46.4 °F 44.3 °F 32.0 °F 57% 30.03 in 10.0 mi West 4.6 mph - N/A   Clear
7:15 AM 44.6 °F 43.1 °F 32.0 °F 61% 30.04 in 10.0 mi WSW 3.5 mph - N/A   Clear
7:35 AM 46.4 °F 42.9 °F 32.0 °F 57% 30.05 in 10.0 mi WSW 6.9 mph - N/A   Clear
7:55 AM 44.6 °F 40.2 °F 32.0 °F 61% 30.05 in 10.0 mi West 8.1 mph - N/A   Clear
8:15 AM 46.4 °F 43.5 °F 33.8 °F 62% 30.05 in 10.0 mi West 5.8 mph - N/A   Clear
8:35 AM 46.4 °F 44.3 °F 33.8 °F 62% 30.06 in 10.0 mi West 4.6 mph - N/A   Clear
8:55 AM 50.0 °F - 33.8 °F 54% 30.06 in 10.0 mi West 4.6 mph - N/A   Clear
9:15 AM 51.8 °F - 33.8 °F 50% 30.06 in 10.0 mi West 8.1 mph - N/A   Clear
9:35 AM 53.6 °F - 35.6 °F 51% 30.06 in 10.0 mi WNW 5.8 mph - N/A   Clear
9:55 AM 55.4 °F - 35.6 °F 47% 30.06 in 10.0 mi WNW 6.9 mph - N/A   Clear
10:15 AM 55.4 °F - 35.6 °F 47% 30.06 in 10.0 mi WNW 5.8 mph - N/A   Clear
10:35 AM 59.0 °F - 35.6 °F 42% 30.06 in 10.0 mi NW 9.2 mph - N/A   Clear
10:55 AM 60.8 °F - 33.8 °F 36% 30.06 in 10.0 mi NW 12.7 mph - N/A   Clear
11:15 AM 60.8 °F - 33.8 °F 36% 30.05 in 10.0 mi NW 10.4 mph - N/A   Clear
11:35 AM 62.6 °F - 33.8 °F 34% 30.04 in 10.0 mi NW 8.1 mph - N/A   Clear
11:55 AM 62.6 °F - 32.0 °F 32% 30.04 in 10.0 mi NW 5.8 mph - N/A   Clear
12:15 PM 64.4 °F - 32.0 °F 30% 30.04 in 10.0 mi WNW 12.7 mph 21.9 mph N/A   Clear
12:35 PM 66.2 °F - 30.2 °F 26% 30.03 in 10.0 mi NW 13.8 mph 19.6 mph N/A   Clear
12:55 PM 68.0 °F - 30.2 °F 24% 30.03 in 10.0 mi WNW 10.4 mph 20.7 mph N/A   Clear
1:15 PM 68.0 °F - 28.4 °F 23% 30.01 in 10.0 mi WNW 8.1 mph 19.6 mph N/A   Clear
1:35 PM 69.8 °F - 23.0 °F 17% 30.00 in 10.0 mi West 16.1 mph 27.6 mph N/A   Clear
1:55 PM 69.8 °F - 23.0 °F 17% 29.99 in 10.0 mi West 17.3 mph 24.2 mph N/A   Clear
2:15 PM 71.6 °F - 17.6 °F 13% 29.97 in 10.0 mi West 16.1 mph 21.9 mph N/A   Clear
2:35 PM 71.6 °F - 17.6 °F 13% 29.96 in 10.0 mi WNW 16.1 mph 24.2 mph N/A   Clear
2:55 PM 71.6 °F - 17.6 °F 13% 29.95 in 10.0 mi West 15.0 mph 24.2 mph N/A   Clear
3:15 PM 71.6 °F - 12.2 °F 10% 29.94 in 10.0 mi West 15.0 mph 27.6 mph N/A   Clear
3:35 PM 71.6 °F - 14.0 °F 11% 29.94 in 10.0 mi West 15.0 mph 24.2 mph N/A   Clear
3:55 PM 73.4 °F - 14.0 °F 10% 29.93 in 10.0 mi West 16.1 mph 20.7 mph N/A   Clear
4:15 PM 71.6 °F - 15.8 °F 12% 29.93 in 10.0 mi West 13.8 mph 20.7 mph N/A   Clear
4:35 PM 71.6 °F - 17.6 °F 13% 29.92 in 10.0 mi West 15.0 mph 20.7 mph N/A   Clear
4:55 PM 71.6 °F - 19.4 °F 14% 29.91 in 10.0 mi West 11.5 mph 23.0 mph N/A   Clear
5:15 PM 71.6 °F - 19.4 °F 14% 29.91 in 10.0 mi West 11.5 mph 19.6 mph N/A   Clear
5:35 PM 71.6 °F - 21.2 °F 15% 29.90 in 10.0 mi West 12.7 mph 20.7 mph N/A   Clear
5:55 PM 71.6 °F - 23.0 °F 16% 29.91 in 10.0 mi West 11.5 mph 17.3 mph N/A   Clear
6:15 PM 71.6 °F - 23.0 °F 16% 29.91 in 10.0 mi West 11.5 mph 16.1 mph N/A   Clear
6:35 PM 71.6 °F - 23.0 °F 16% 29.90 in 10.0 mi West 10.4 mph - N/A   Clear
6:55 PM 69.8 °F - 23.0 °F 17% 29.90 in 10.0 mi West 9.2 mph - N/A   Clear
7:15 PM 69.8 °F - 24.8 °F 18% 29.91 in 10.0 mi WSW 10.4 mph - N/A   Clear
7:35 PM 68.0 °F - 26.6 °F 21% 29.91 in 10.0 mi West 8.1 mph - N/A   Clear
7:55 PM 66.2 °F - 28.4 °F 24% 29.91 in 10.0 mi West 8.1 mph - N/A   Clear
8:15 PM 64.4 °F - 30.2 °F 28% 29.93 in 10.0 mi West 8.1 mph - N/A   Clear
8:35 PM 64.4 °F - 30.2 °F 28% 29.93 in 10.0 mi West 8.1 mph - N/A   Clear
8:55 PM 64.4 °F - 32.0 °F 30% 29.93 in 10.0 mi West 6.9 mph - N/A   Clear
9:15 PM 62.6 °F - 32.0 °F 32% 29.93 in 10.0 mi West 6.9 mph - N/A   Clear
9:35 PM 62.6 °F - 32.0 °F 32% 29.93 in 10.0 mi West 5.8 mph - N/A   Clear
9:55 PM 62.6 °F - 32.0 °F 32% 29.93 in 10.0 mi West 6.9 mph - N/A   Clear
10:15 PM 62.6 °F - 32.0 °F 32% 29.93 in 10.0 mi West 5.8 mph - N/A   Clear
10:35 PM 60.8 °F - 32.0 °F 34% 29.94 in 10.0 mi WNW 5.8 mph - N/A   Clear
10:55 PM 60.8 °F - 32.0 °F 34% 29.93 in 10.0 mi WNW 8.1 mph - N/A   Clear
11:15 PM 60.8 °F - 33.8 °F 36% 29.94 in 10.0 mi West 5.8 mph - N/A   Clear
11:35 PM 60.8 °F - 33.8 °F 36% 29.93 in 10.0 mi West 5.8 mph - N/A   Clear
11:55 PM 59.0 °F - 33.8 °F 39% 29.93 in 10.0 mi West 6.9 mph - N/A   Clear